Location: Grandview
(34.8900°N, 117.1058°W)
Time: 15:43:01
(UTC-08:00)

Vanguard 2 Rocket - All Passes

Search period start: 23 January 2018 00:00
Search period end: 02 February 2018 00:00
Orbit: 556 x 3326 km, 32.9° (Epoch: 22 January)

Date Brightness Start Highest point End Pass type
(mag) Time Alt. Az. Time Alt. Az. Time Alt. Az.
23 Jan - 02:34:23 10° S 02:42:45 15° SE 02:49:56 10° ESE visible
23 Jan - 04:44:13 10° SSW 04:59:09 37° SSE 05:08:46 10° E visible
23 Jan - 07:00:56 10° WSW 07:14:34 65° SSE 07:22:04 10° E daylight
23 Jan - 09:19:11 10° W 09:28:45 77° S 09:34:10 10° E daylight
23 Jan - 11:36:01 10° W 11:41:37 37° SSW 11:45:34 10° SE daylight
24 Jan - 03:43:30 10° SSW 03:58:18 31° SSE 04:08:46 10° E visible
24 Jan - 05:58:55 10° SW 06:14:17 57° SSE 06:23:06 10° E visible
24 Jan - 08:17:23 10° W 08:29:07 78° S 08:35:32 10° E daylight
24 Jan - 10:35:08 10° W 10:42:37 56° SSW 10:47:16 10° ESE daylight
24 Jan - 12:52:36 10° WSW 12:54:33 12° SW 12:56:21 10° SSW daylight
25 Jan - 02:43:39 10° S 02:57:15 24° SE 03:07:54 10° E visible
25 Jan - 04:57:06 10° SW 05:13:41 50° SSE 05:23:51 10° E visible
25 Jan - 07:15:12 10° WSW 07:29:10 75° S 07:36:45 10° E daylight
25 Jan - 09:33:49 10° W 09:43:21 71° SSW 09:48:47 10° ESE daylight
25 Jan - 11:51:01 10° W 11:55:49 24° SW 11:59:25 10° SSE daylight
26 Jan - 01:45:12 10° S 01:56:06 17° SE 02:05:33 10° ESE visible
26 Jan - 03:55:45 10° SW 04:12:46 42° SSE 04:24:11 10° E visible
26 Jan - 06:12:51 10° WSW 06:28:52 69° SSE 06:37:50 10° E visible
26 Jan - 08:31:58 10° W 08:43:45 79° S 08:50:10 10° E daylight
26 Jan - 10:49:52 10° W 10:56:58 40° SSW 11:01:32 10° SE daylight
27 Jan - 00:50:43 10° SSE 00:54:55 11° SE 00:58:58 10° SE visible
27 Jan - 02:55:03 10° SSW 03:11:37 35° SSE 03:23:57 10° E visible
27 Jan - 05:10:38 10° SW 05:28:11 62° SSE 05:38:40 10° E visible
27 Jan - 07:29:41 10° W 07:43:48 80° S 07:51:25 10° E daylight
27 Jan - 09:48:27 10° W 09:57:51 58° SSW 10:03:16 10° ESE daylight
27 Jan - 12:06:48 10° WSW 12:09:48 14° SW 12:12:20 10° S daylight
28 Jan - 01:55:16 10° SSW 02:10:21 27° SE 02:22:51 10° E visible
28 Jan - 04:08:46 10° SW 04:27:11 54° SSE 04:39:09 10° E visible
28 Jan - 06:27:09 10° WSW 06:43:27 78° S 06:52:30 10° E visible
28 Jan - 08:46:35 10° W 08:58:20 72° SSW 09:04:46 10° ESE daylight
28 Jan - 11:04:50 10° W 11:11:06 27° SW 11:15:22 10° SSE daylight
29 Jan - 00:56:51 10° S 01:09:07 20° SE 01:20:19 10° E visible
29 Jan - 03:07:30 10° SW 03:25:53 46° SSE 03:39:13 10° E visible
29 Jan - 05:24:37 10° WSW 05:42:42 73° SSE 05:53:21 10° E visible
29 Jan - 07:44:17 10° W 07:58:25 80° S 08:06:04 10° E daylight
29 Jan - 10:03:09 10° W 10:12:08 44° SSW 10:17:30 10° SE daylight
30 Jan - 00:01:27 10° SSE 00:07:59 12° SE 00:14:24 10° ESE visible
30 Jan - 02:06:59 10° SSW 02:24:30 38° SSE 02:38:40 10° E visible
30 Jan - 04:22:23 10° WSW 04:41:35 66° SSE 04:53:54 10° E visible
30 Jan - 06:41:39 10° W 06:58:04 82° S 07:07:09 10° E daylight
30 Jan - 09:01:12 10° W 09:12:47 61° SSW 09:19:13 10° ESE daylight
30 Jan - 11:20:25 10° W 11:24:57 17° SW 11:28:26 10° S daylight
31 Jan - 01:07:25 10° SSW 01:23:07 29° SE 01:37:13 10° E visible
31 Jan - 03:20:40 10° SW 03:40:11 58° SSE 03:54:06 10° E visible
31 Jan - 05:38:56 10° WSW 05:57:16 80° S 06:08:00 10° E visible
31 Jan - 07:58:53 10° W 08:12:58 74° SSW 08:20:38 10° ESE daylight
31 Jan - 10:18:04 10° W 10:26:09 31° SW 10:31:19 10° SSE daylight
01 Feb - 00:09:11 10° S 00:21:55 21° SE 00:34:20 10° E visible
01 Feb - 02:19:39 10° SW 02:38:36 49° SSE 02:53:49 10° E visible
01 Feb - 04:36:25 10° WSW 04:56:04 75° SSE 05:08:34 10° E visible
01 Feb - 06:56:14 10° W 07:12:40 81° S 07:21:46 10° E daylight
01 Feb - 09:15:53 10° W 09:27:00 47° SSW 09:33:25 10° SE daylight
01 Feb - 23:13:43 10° SSE 23:20:56 13° SE 23:28:19 10° ESE visible
